Date String (YYYY-MM-DD hh:mm:ss) UTC,Instrument flags,Ambient pressure (hPa),Sample flow (lpm),Bypass flow (lpm),Sample temperature (°C),Ambient temperature (°C),ASC tube jacket temperature (°C),LED temperature (°C),Box temperature (°C),Sample RH (%),Span deviation,Mass concentration (μg/m³),Mass concentration (μg/m³),Mass concentration (μg/m³)
DateTimeUTC,F1_M11,P_M11,Q1_M11,Q2_M11,T1_M11,T2_M11,T3_M11,T4_M11,T5_M11,U1_M11,ZSPAN_M11,X0_M11,X2_M11,X1_M11
2022-09-15 06:00:00,,0824.2,4.99,0.00,30.2,28.7,00.0,39.0,32.0,21.7,0000.0,0002.33,0001.72,0001.53
2022-09-15 06:01:00,,0824.3,5.01,0.00,30.2,28.8,00.0,39.0,32.0,21.6,0000.0,0002.41,0001.75,0001.55
2022-09-15 06:02:00,,0824.3,4.98,0.00,30.3,28.8,00.0,39.0,32.1,22.2,0000.0,0002.52,0001.78,0001.56
2022-09-15 06:03:00,,0824.2,5.01,0.00,30.3,28.9,00.0,39.0,32.1,22.3,0000.0,0002.58,0001.76,0001.56
2022-09-15 06:04:00,,0824.2,4.99,0.00,30.3,28.9,00.0,39.0,32.1,22.5,0000.0,0002.55,0001.75,0001.56
2022-09-15 06:05:00,,0824.2,4.99,0.00,30.3,28.9,00.0,39.0,32.1,22.2,0000.0,0002.49,0001.72,0001.56
2022-09-15 06:06:00,,0824.2,5.00,0.00,30.3,28.9,00.0,39.1,32.1,22.3,0000.0,0002.48,0001.71,0001.56
2022-09-15 06:07:00,,0824.2,5.00,0.00,30.3,29.0,00.0,39.1,32.1,22.2,0000.0,0002.74,0001.72,0001.55
2022-09-15 06:08:00,,0824.2,5.00,0.00,30.4,29.0,00.0,39.1,32.2,22.1,0000.0,0002.72,0001.72,0001.55
2022-09-15 06:09:00,,0824.2,5.02,0.00,30.4,29.0,00.0,39.1,32.2,22.2,0000.0,0002.82,0001.74,0001.55
2022-09-15 06:10:00,,0824.3,4.99,0.00,30.4,29.0,00.0,39.1,32.2,22.2,0000.0,0002.81,0001.73,0001.56
2022-09-15 06:11:00,,0824.2,5.00,0.00,30.4,29.0,00.0,39.1,32.2,22.2,0000.0,0003.27,0001.75,0001.56
2022-09-15 06:12:00,,0824.2,5.01,0.00,30.4,29.0,00.0,39.1,32.2,22.1,0000.0,0004.08,0001.77,0001.56
2022-09-15 06:13:00,,0824.2,4.99,0.00,30.4,29.1,00.0,39.1,32.2,22.0,0000.0,0004.01,0001.76,0001.56
2022-09-15 06:14:00,,0824.1,5.01,0.00,30.4,29.1,00.0,39.1,32.2,22.1,0000.0,0003.87,0001.76,0001.57
2022-09-15 06:15:00,,0824.2,5.00,0.00,30.4,29.1,00.0,39.2,32.2,22.1,0000.0,0003.97,0001.78,0001.57
2022-09-15 06:16:00,,0824.2,5.02,0.00,30.5,29.1,00.0,39.2,32.2,22.1,0000.0,0004.20,0001.80,0001.57
2022-09-15 06:17:00,,0824.2,4.99,0.00,30.5,29.1,00.0,39.2,32.2,22.2,0000.0,0004.41,0001.82,0001.57
2022-09-15 06:18:00,,0824.3,5.01,0.00,30.5,29.1,00.0,39.2,32.3,22.2,0000.0,0004.14,0001.80,0001.58
2022-09-15 06:19:00,,0824.3,4.99,0.00,30.5,29.1,00.0,39.2,32.3,22.2,0000.0,0003.97,0001.78,0001.57
2022-09-15 06:20:00,,0824.3,5.02,0.00,30.5,29.1,00.0,39.2,32.3,22.3,0000.0,0003.85,0001.75,0001.57
2022-09-15 06:21:00,,0824.2,5.00,0.00,30.5,29.1,00.0,39.2,32.3,22.4,0000.0,0003.76,0001.72,0001.56
2022-09-15 06:22:00,,0824.2,4.99,0.00,30.5,29.1,00.0,39.2,32.3,22.2,0000.0,0003.58,0001.73,0001.55
2022-09-15 06:23:00,,0824.2,5.01,0.00,30.5,29.1,00.0,39.2,32.3,22.1,0000.0,0002.64,0001.71,0001.54
2022-09-15 06:24:00,,0824.2,4.99,0.00,30.5,29.1,00.0,39.3,32.3,22.0,0000.0,0002.62,0001.70,0001.53
2022-09-15 06:25:00,,0824.2,5.01,0.00,30.5,29.1,00.0,39.3,32.3,21.8,0000.0,0002.64,0001.70,0001.52
2022-09-15 06:26:00,,0824.2,5.00,0.00,30.6,29.2,00.0,39.3,32.4,21.6,0000.0,0002.67,0001.72,0001.52
2022-09-15 06:27:00,,0824.3,5.01,0.00,30.6,29.2,00.0,39.3,32.4,21.5,0000.0,0002.53,0001.73,0001.53
2022-09-15 06:28:00,,0824.3,5.00,0.00,30.6,29.2,00.0,39.3,32.4,21.5,0000.0,0002.28,0001.73,0001.53
2022-09-15 06:29:00,,0824.2,5.01,0.00,30.6,29.2,00.0,39.3,32.4,21.3,0000.0,0002.27,0001.72,0001.52
2022-09-15 06:30:00,,0824.2,4.99,0.00,30.6,29.2,00.0,39.3,32.4,21.3,0000.0,0002.42,0001.76,0001.52
2022-09-15 06:31:00,,0824.2,5.01,0.00,30.6,29.2,00.0,39.3,32.4,21.3,0000.0,0002.44,0001.76,0001.52
2022-09-15 06:32:00,,0824.4,4.99,0.00,30.6,29.2,00.0,39.3,32.4,21.3,0000.0,0002.46,0001.76,0001.52
2022-09-15 06:33:00,,0824.3,5.00,0.00,30.6,29.2,00.0,39.4,32.4,21.1,0000.0,0002.53,0001.76,0001.52
2022-09-15 06:34:00,,0824.2,4.99,0.00,30.6,29.2,00.0,39.4,32.4,21.2,0000.0,0002.40,0001.73,0001.51
2022-09-15 06:35:00,,0824.2,5.01,0.00,30.6,29.2,00.0,39.4,32.4,21.1,0000.0,0002.35,0001.71,0001.51
2022-09-15 06:36:00,,0824.5,5.01,0.00,30.6,29.2,00.0,39.4,32.4,21.4,0000.0,0002.31,0001.69,0001.51
2022-09-15 06:37:00,,0824.2,5.00,0.00,30.6,29.2,00.0,39.4,32.4,21.6,0000.0,0002.23,0001.66,0001.51
2022-09-15 06:38:00,,0824.4,5.01,0.00,30.7,29.2,00.0,39.4,32.4,21.5,0000.0,0002.18,0001.64,0001.49
2022-09-15 06:39:00,,0824.1,4.99,0.00,30.7,29.2,00.0,39.4,32.4,21.5,0000.0,0002.11,0001.60,0001.48
2022-09-15 06:40:00,,0824.2,5.01,0.00,30.7,29.2,00.0,39.4,32.4,21.5,0000.0,0002.10,0001.60,0001.48
2022-09-15 06:41:00,,0824.3,5.00,0.00,30.7,29.2,00.0,39.4,32.4,21.4,0000.0,0002.03,0001.58,0001.47
2022-09-15 06:42:00,,0824.2,4.99,0.00,30.7,29.2,00.0,39.4,32.5,21.4,0000.0,0002.06,0001.60,0001.47
2022-09-15 06:43:00,,0824.2,5.01,0.00,30.7,29.2,00.0,39.4,32.5,21.4,0000.0,0002.14,0001.62,0001.46
2022-09-15 06:44:00,,0824.2,4.99,0.00,30.7,29.3,00.0,39.4,32.5,21.3,0000.0,0002.11,0001.63,0001.47
2022-09-15 06:45:00,,0824.2,5.01,0.00,30.7,29.3,00.0,39.4,32.5,21.3,0000.0,0002.16,0001.64,0001.47
2022-09-15 06:46:00,,0824.2,5.01,0.00,30.7,29.3,00.0,39.5,32.5,21.3,0000.0,0002.18,0001.65,0001.47
2022-09-15 06:47:00,,0824.2,5.00,0.00,30.7,29.3,00.0,39.5,32.5,21.3,0000.0,0002.26,0001.68,0001.47
2022-09-15 06:48:00,,0824.2,5.00,0.00,30.7,29.3,00.0,39.5,32.5,21.3,0000.0,0002.25,0001.68,0001.47
2022-09-15 06:49:00,,0824.2,5.00,0.00,30.7,29.3,00.0,39.5,32.5,21.3,0000.0,0002.26,0001.68,0001.48
2022-09-15 06:50:00,,0824.2,5.00,0.00,30.7,29.3,00.0,39.5,32.5,21.4,0000.0,0002.24,0001.68,0001.49
2022-09-15 06:51:00,,0824.2,5.00,0.00,30.7,29.3,00.0,39.5,32.5,21.4,0000.0,0002.27,0001.69,0001.49
2022-09-15 06:52:00,,0824.1,5.00,0.00,30.7,29.3,00.0,39.5,32.5,21.5,0000.0,0002.28,0001.69,0001.50
2022-09-15 06:53:00,,0824.1,4.99,0.00,30.7,29.3,00.0,39.5,32.5,21.5,0000.0,0002.26,0001.67,0001.50
2022-09-15 06:54:00,,0824.1,5.01,0.00,30.8,29.3,00.0,39.5,32.5,21.6,0000.0,0002.29,0001.69,0001.51
2022-09-15 06:55:00,,0824.1,4.99,0.00,30.7,29.3,00.0,39.5,32.5,21.5,0000.0,0002.24,0001.67,0001.50
2022-09-15 06:56:00,,0824.1,5.01,0.00,30.7,29.2,00.0,39.5,32.5,21.5,0000.0,0002.19,0001.68,0001.51
2022-09-15 06:57:00,,0824.1,5.01,0.00,30.7,29.3,00.0,39.5,32.5,21.5,0000.0,0002.23,0001.69,0001.52
2022-09-15 06:58:00,,0824.1,4.99,0.00,30.7,29.3,00.0,39.5,32.5,21.5,0000.0,0002.22,0001.69,0001.53
2022-09-15 06:59:00,,0824.1,5.01,0.00,30.8,29.3,00.0,39.5,32.5,21.5,0000.0,0002.34,0001.75,0001.55
